Regional Weather Roundup
Issued by NWS

Home | Current Version | Previous Version | Text Only | Print | Product List | Glossary Off
Versions: 1 2 3 4 5 6 7 8 9 10 11 12 13 14 15 16 17 18 19 20 21 22 23 24 25 26 27 28 29 30 31 32 33 34 35 36 37 38 39 40 41 42 43 44 45 46 47 48 49 50

000
ASUS43 KMKX 220700
RWRWI

WISCONSIN REGIONAL WEATHER ROUNDUP
NATIONAL WEATHER SERVICE MILWAUKEE/SULLIVAN WI
200 AM CDT WED MAR 22 2017

NOTE: "FAIR" INDICATES FEW OR NO CLOUDS BELOW 12,000 FEET WITH NO
SIGNIFICANT WEATHER AND/OR OBSTRUCTIONS TO VISIBILITY.

WIZ001-002-006>008-014>016-023>028-220800-
NORTHWEST WISCONSIN

CITY           SKY/WX    TMP DP  RH WIND       PRES   REMARKS
SUPERIOR ARPT  CLEAR     20   3  46 NE5       30.59S WCI  14
ASHLAND        CLEAR     14   7  73 N3        30.58R
HAYWARD        CLEAR     13   8  81 CALM      30.55R
SIREN          CLEAR     15   5  65 CALM      30.57R
CUMBERLAND     CLEAR     19   5  53 N5        30.54R WCI  13
RICE LAKE      CLEAR     19  14  84 CALM      30.57R
CHETEK         CLEAR     19  11  73 CALM      30.55R
LADYSMITH      CLEAR     18  11  74 N5        30.55R WCI  11
EAU CLAIRE     NOT AVBL
MENOMONIE      CLEAR     22   8  52 N5        30.56R WCI  16
NEW RICHMOND   CLEAR     19  12  75 CALM      30.55S
OSCEOLA        CLEAR     18  13  80 CALM      30.59R
$$

WIZ003>005-009-010-017-018-220800-
NORTH CENTRAL WISCONSIN

CITY           SKY/WX    TMP DP  RH WIND       PRES   REMARKS
MANITOWISH WTR PTCLDY     5   3  91 CALM      30.49R
ARBOR VITAE    CLEAR     11   8  85 CALM      30.47R
WOODRUFF       CLEAR     11   8  85 CALM      30.47R
RHINELANDER    CLEAR     15   5  64 N3        30.49R
EAGLE RIVER    CLEAR      8   2  79 CALM      30.47R
LAND O LAKES   CLEAR      8   4  82 CALM      30.49R
PHILLIPS       CLEAR     10   8  89 CALM      30.50S
TOMAHAWK       CLEAR      9   6  87 CALM      30.51R
MEDFORD        CLEAR     17   8  66 CALM      30.49S
MERRILL        CLEAR     13   7  76 NW3       30.51R
$$

WIZ029-030-035-036-043>047-220800-
CENTRAL WISCONSIN

CITY           SKY/WX    TMP DP  RH WIND       PRES   REMARKS
WAUSAU         CLEAR     19   9  65 CALM      30.51R
MOSINEE        CLEAR     19   9  63 CALM      30.52R
MARSHFIELD     CLEAR     20   5  52 NE5       30.50R WCI  13
STEVENS POINT  CLEAR     17   5  59 CALM      30.52R
WAUPACA        PTCLDY    24   8  51 N3        30.53R
WAUTOMA        PTCLDY    22   8  55 N6        30.53R WCI  14
WISC RAPIDS    CLEAR     20   7  57 NE6       30.54R WCI  12
CAMP DOUGLAS   NOT AVBL
$$

WIZ011>013-019>022-031-037>040-048>050-220800-
NORTHEAST WISCONSIN

CITY           SKY/WX    TMP DP  RH WIND       PRES   REMARKS
ANTIGO         CLEAR     17   9  70 N7        30.48S WCI   7
SHAWANO        CLEAR     22   8  55 CALM      30.54R
OCONTO         CLEAR     20   6  56 CALM      30.53R
STURGEON BAY   CLEAR     21   8  57 N13       30.52  WCI   9
GREEN BAY      CLEAR     22   9  57 N6        30.53R WCI  14
MANITOWOC      NOT AVBL
APPLETON       CLEAR     23   5  46 N12       30.50R WCI  12
CLINTONVILLE   CLEAR     23   9  54 CALM      30.53R
OSHKOSH        CLEAR     22   8  55 N10       30.52R WCI  11
$$

WIZ032>034-041-042-053>061-220800-
SOUTHWEST WISCONSIN

CITY           SKY/WX    TMP DP  RH WIND       PRES   REMARKS
LA CROSSE      CLEAR     28  10  46 NE9       30.53R WCI  19
SPARTA         CLEAR     24  10  55 NE8       30.54R WCI  15
VIROQUA        CLEAR     25  13  60 NE16G22   30.48R WCI  12
BOSCOBEL       PTCLDY    29  13  51 NE7       30.51R WCI  22
PRAIRIE DU CHI PTCLDY    30  12  47 NE7       30.49R WCI  23
PLATTEVILLE    CLEAR     28  17  62 NE10      30.46R WCI  19
$$

WIZ056-057-062-063-064-067-068-220800-
SOUTH CENTRAL WISCONSIN

CITY           SKY/WX    TMP DP  RH WIND       PRES   REMARKS
REEDSBURG      CLEAR     24   9  52 NE7       30.51R WCI  16
BARABOO/DELLS  CLEAR     24   9  52 NE9       30.50R WCI  14
LONE ROCK      NOT AVBL
MINERAL POINT  CLEAR     30  14  51 NE13      30.45R WCI  20
MADISON        PTCLDY    25  12  58 NE10      30.49R WCI  15
MIDDLETON      PTCLDY    28  17  64 NE14      30.50R WCI  17
WATERTOWN      CLEAR     25  13  60 NE8G17    30.49R WCI  17
MONROE         PTCLDY    28  19  69 NE16      30.45R WCI  17
JANESVILLE     PTCLDY    30  23  74 NE10      30.46R WCI  21
$$

WIZ051-052-058>065-066-070>072-220800-
SOUTHEAST WISCONSIN

CITY           SKY/WX    TMP DP  RH WIND       PRES   REMARKS
MILWAUKEE      PTCLDY    28  13  53 N16G25    30.48R WCI  16
WAUKESHA       CLEAR     25  10  54 NE13      30.49R WCI  13
MILWAUKEE/TIMM CLEAR     27   9  46 N12       30.50R WCI  16
RACINE         MOCLDY    29  16  58 N16G23    30.49R WCI  17
KENOSHA        CLEAR     28  14  55 N10       30.48R WCI  19
FOND DU LAC    CLEAR     25   8  48 N14       30.51R WCI  13
SHEBOYGAN      CLEAR     24   8  50 N9        30.50R WCI  14
WEST BEND      CLEAR     25  12  58 NE8       30.49R WCI  16
JUNEAU         CLEAR     24  11  57 N10G16    30.50R WCI  14
$$

LSZ147-162-220800-
LAKE SUPERIOR

STATION/POSITION TIME  TEMP    WIND        PRES    WAVE
                       AIR SEA DIR/SP/G            HT/PER
                 (UTC) (F)     (DEG/KT/KT) (MB)    (FT/S)
DEVILS ISLAND    0600   24      20/ 14/ 16 1036.6R
PORT WING        0640   25      20/ 12/ 16 1035.6R
SAXON HARBOR     0630   25      30/ 11/ 13 1034.5R
$$

LMZ867-665-643>646-220800-
LAKE MICHIGAN

STATION/POSITION TIME  TEMP    WIND        PRES    WAVE
                       AIR SEA DIR/SP/G            HT/PER
                 (UTC) (F)     (DEG/KT/KT) (MB)    (FT/S)
CHAMBERS ISLAND  0640   22     320/ 13/ 18 1032.8R
NORTHPORT PIER   0640   23     360/ 15/ 22 1033.2R
SISTER BAY       0521   23     350/ 19/ 22   N/A
KEWAUNEE LAKESHO 0630   23     360/  5/ 11 1032.7R
SHEBOYGAN LAKESH 0600   27     360/ 21/ 23 1033.3R
PORT WASHINGTON  0640   26     360/  6/ 12 1033.9R
MILWAUKEE LAKESH 0630   29      10/ 19/ 22   N/A
KENOSHA   LAKESH 0600   31      20/ 25/ 30 1031.2
$$

TC  - TEMPERATURE IN CELSIUS
VSB - VISIBILITY IN STATUTE MILES
WCI - WIND CHILL INDEX
HX  - HEAT INDEX





USA.gov is the U.S. government's official web portal to all federal, state and local government web resources and services.